Theta_e
282 280 281 282 284 285 286 285 284 283 284 283 283 285 287 284 282 282 285 282 284 287 285 287 288 287 289 289 290 290 289 288 289 290 290 288 288 288 289 290 290 290 291 291 291 291 291 292 292 293 293 293 293 293 292 292 291 292 289 289 290 289 288 289 291 292 292 292 292 291 290 290 291 291 290 290 289 289 288 289 290 290 291 291 291 290 290
282 282 282 282 285 282 282 283 284 285 284 284 286 286 288 286 285 286 284 281 284 287 284 288 289 287 287 289 289 289 290 291 289 288 287 288 287 287 289 289 290 290 290 290 290 290 291 291 292 292 293 293 293 292 293 293 292 291 289 290 289 289 289 290 291 291 291 290 291 290 290 291 291 290 290 289 288 288 289 289 289 289 289 289 290 291 291
280 281 282 282 283 284 283 281 281 283 284 285 286 287 286 285 284 284 283 283 284 289 288 288 291 291 290 288 290 291 290 288 287 287 287 288 288 288 288 289 290 289 289 289 289 290 290 291 291 291 292 292 292 292 292 292 292 292 290 290 290 289 290 290 289 289 289 289 289 289 290 290 290 290 290 289 288 288 288 288 288 288 288 288 289 289 290
277 281 281 281 282 281 281 281 282 282 282 282 283 283 283 283 284 286 283 283 285 289 289 289 289 289 289 289 289 289 290 288 285 287 287 287 288 288 288 288 288 288 288 289 289 290 290 290 290 290 291 291 290 291 291 291 291 290 290 290 290 291 291 291 290 289 288 289 288 289 288 289 289 289 288 288 288 288 288 288 288 287 287 288 289 289 289
277 282 282 279 279 280 279 282 285 286 284 284 283 285 284 287 288 284 282 285 291 289 287 288 288 288 288 287 288 288 287 286 286 287 288 288 287 288 288 288 288 287 287 288 288 288 289 290 290 290 289 288 289 290 290 290 289 289 289 289 290 290 290 290 290 290 289 289 289 288 289 288 288 288 287 287 288 288 288 288 287 287 288 287 288 288 288
279 277 280 282 281 276 279 290 289 289 287 286 283 284 286 287 289 287 290 290 291 288 287 289 287 287 288 289 290 289 289 287 286 287 286 286 286 286 286 286 287 288 289 288 288 287 288 288 288 288 287 287 288 288 288 288 288 288 288 289 289 289 289 289 289 289 288 288 288 288 288 288 287 287 287 288 288 288 288 287 287 287 287 287 287 287 287
280 278 282 280 276 278 290 290 291 292 291 289 287 289 290 290 289 290 290 290 291 292 291 290 289 288 289 287 289 288 286 287 287 287 287 286 285 286 286 287 287 286 287 288 288 288 289 288 287 288 288 287 287 287 286 286 286 286 287 287 288 288 288 288 288 288 288 288 288 288 288 287 287 287 287 287 287 287 287 288 287 287 288 287 287 287 286
282 279 281 275 277 286 286 288 288 287 289 288 288 287 289 289 290 290 290 291 293 293 290 285 286 287 285 283 285 286 286 285 286 285 287 286 285 286 287 287 288 288 288 288 287 288 288 287 288 287 287 287 286 287 286 285 286 286 286 286 287 287 287 288 287 287 287 287 287 287 287 287 286 287 287 287 287 287 286 286 286 285 286 286 286 286 286
280 281 281 280 286 285 286 286 284 287 285 284 286 284 287 290 290 291 291 292 292 291 283 284 282 282 284 286 285 284 284 285 286 288 287 287 286 284 285 285 287 288 287 287 287 286 286 286 286 287 287 286 285 285 285 286 286 286 286 286 287 287 287 287 287 287 286 286 286 287 287 286 286 287 287 287 287 285 285 286 286 285 286 286 286 286 285
285 281 279 279 279 276 282 286 284 286 288 289 289 288 285 285 286 291 291 290 291 286 282 283 282 283 285 283 285 287 285 284 286 285 285 283 283 283 284 285 285 285 286 286 286 286 286 286 286 286 285 285 284 284 285 285 285 285 285 286 286 286 286 286 286 286 286 285 285 286 286 286 286 287 286 286 286 285 285 286 285 285 285 285 284 284 284
283 281 278 278 276 280 286 284 287 285 286 290 286 285 281 284 285 284 288 289 288 287 285 284 283 284 281 281 283 286 283 283 284 284 283 283 284 284 285 285 285 286 286 285 285 285 284 285 286 285 284 283 283 284 284 284 284 284 285 286 286 286 286 285 285 285 285 284 284 284 285 285 286 286 286 286 285 282 283 284 285 283 282 282 282 281 282
283 282 280 277 281 279 283 284 282 283 284 289 288 277 276 284 282 283 286 288 287 283 284 282 282 284 278 281 282 282 284 285 283 285 285 284 283 284 283 283 284 285 285 284 284 285 285 286 286 285 284 283 283 283 284 284 284 284 285 286 285 285 285 285 284 284 284 283 283 283 284 284 284 285 284 283 283 282 282 281 282 280 279 281 281 281 280
283 283 281 282 281 284 282 283 282 282 286 289 281 276 281 282 283 281 283 284 283 283 283 280 281 281 281 282 283 282 282 283 283 283 283 284 283 284 284 284 284 283 283 283 284 285 286 286 285 284 283 283 283 283 283 283 284 285 285 285 284 284 284 283 283 283 283 282 282 282 282 282 282 282 281 282 281 279 280 279 277 278 278 279 279 279 278
281 282 281 281 283 285 283 283 286 284 287 280 279 286 282 284 282 281 281 283 281 283 283 282 281 284 281 281 281 282 283 283 283 282 283 282 283 283 283 284 283 283 282 282 283 283 283 284 284 283 282 282 282 283 282 283 284 285 284 283 283 283 283 282 282 282 281 281 279 280 280 279 280 280 278 275 277 278 278 276 277 278 276 277 278 277 277
284 282 279 279 276 284 287 287 284 283 282 282 287 282 283 283 284 282 280 281 282 282 282 281 281 281 282 282 283 282 282 282 282 283 283 283 283 283 284 284 283 283 281 282 283 283 284 283 283 282 278 280 281 282 282 283 284 284 283 282 282 281 281 281 281 281 280 279 279 278 278 278 277 279 276 274 274 274 275 275 276 277 276 276 276 276 276
279 280 277 279 286 287 287 290 284 282 285 281 283 286 282 282 280 282 282 280 280 281 283 283 281 281 282 282 281 282 282 282 282 281 282 282 282 283 283 283 283 281 282 282 283 283 284 284 281 280 279 280 280 280 281 284 283 282 281 281 280 279 280 280 280 280 279 278 277 276 276 276 275 276 276 274 273 275 275 276 276 276 275 276 275 276 276
283 280 284 286 285 285 285 283 283 280 283 282 284 284 286 284 283 280 284 283 280 280 281 281 282 282 282 283 281 282 281 281 281 281 282 282 282 282 282 283 282 281 282 282 282 282 283 282 283 281 278 280 280 280 282 282 281 281 280 279 278 278 278 279 278 278 277 276 276 275 274 273 275 276 275 272 274 273 274 276 276 276 276 276 276 277 276
283 282 282 282 281 283 282 281 282 282 282 282 282 285 285 283 281 281 282 281 281 280 280 282 281 282 282 281 280 280 280 281 281 281 281 281 281 282 281 282 282 282 282 281 281 281 282 281 282 282 280 277 279 281 282 281 280 279 278 277 277 278 278 278 277 276 275 276 275 274 273 272 273 274 275 275 275 274 273 274 275 275 275 275 276 277 278
283 278 281 281 283 281 280 282 281 281 281 281 281 282 282 281 282 282 282 283 283 282 281 282 282 282 281 281 280 280 280 279 280 281 281 281 281 281 280 281 281 281 280 280 280 280 280 281 280 281 281 281 280 280 280 280 279 277 276 276 277 277 278 277 276 274 274 276 276 275 272 272 271 272 273 273 274 275 275 276 277 277 277 278 278 278 278
281 277 279 281 279 278 279 279 283 282 281 281 281 282 282 282 281 281 281 281 281 280 281 281 280 281 281 280 279 279 279 280 280 280 280 279 279 279 279 279 279 278 278 278 279 279 279 280 280 280 280 280 280 279 279 279 277 275 275 276 277 277 277 276 275 274 274 276 276 275 273 272 272 272 272 272 274 276 278 279 279 279 279 279 279 278 278
276 279 281 279 280 280 280 280 279 279 281 281 281 281 282 282 282 281 281 280 280 280 281 280 279 278 279 279 278 278 278 278 278 278 278 278 277 278 277 277 277 277 277 277 278 278 278 279 279 279 279 279 279 278 278 277 275 274 275 276 276 276 276 275 275 275 275 275 274 273 273 272 271 273 273 274 276 276 278 279 279 279 279 279 279 280 280
273 277 280 279 278 276 280 280 279 279 280 281 280 279 279 279 279 280 279 279 278 278 278 278 276 275 277 277 277 276 277 277 277 276 276 276 275 275 275 276 276 276 276 276 276 277 277 278 278 278 278 278 278 278 276 275 274 273 275 276 276 276 276 275 275 274 274 273 272 272 272 271 272 274 278 281 279 278 277 281 283 283 283 280 280 279 279
276 279 281 284 282 281 281 281 278 277 278 280 279 277 276 276 276 277 277 277 276 277 276 275 274 273 275 275 274 273 273 273 274 274 273 273 273 273 274 274 275 274 274 275 275 275 275 276 276 276 276 277 277 277 276 275 273 273 274 275 276 277 276 276 276 275 274 273 272 271 272 273 273 274 275 278 283 283 283 282 282 283 283 282 282 282 281
279 279 282 282 278 280 279 277 276 277 278 278 275 275 274 274 275 275 275 276 276 275 275 273 273 272 271 271 270 269 269 270 271 271 271 271 271 272 273 273 272 271 271 272 272 272 273 273 274 274 275 276 276 276 276 274 273 273 273 275 276 277 277 276 276 276 275 275 274 274 273 273 274 273 275 277 278 282 283 282 283 282 282 282 282 282 282
281 280 279 278 278 277 277 275 275 275 275 276 274 273 273 272 272 273 273 273 273 272 272 271 271 269 267 267 267 267 267 268 268 268 269 269 270 270 270 269 268 269 269 269 269 269 270 271 272 273 274 275 276 276 276 274 273 272 273 274 275 276 277 277 277 277 277 275 276 276 276 276 275 275 275 277 278 278 280 283 282 282 282 283 282 282 282
279 277 277 276 275 275 274 275 275 274 273 273 271 271 271 271 271 271 271 271 269 269 268 268 268 266 266 264 265 265 265 265 266 267 266 267 267 267 266 266 267 267 267 267 267 268 269 270 271 272 273 274 275 275 274 273 272 271 272 273 274 276 277 277 277 278 277 276 276 277 277 278 278 278 278 279 279 279 278 279 280 281 283 283 282 282 282
276 278 278 276 274 274 275 277 277 273 271 271 270 269 269 268 269 268 268 267 266 266 266 266 264 263 262 262 263 263 263 264 264 264 264 264 264 265 265 265 265 265 265 265 266 268 270 271 272 272 273 273 274 274 273 272 271 270 271 272 274 275 276 277 279 279 279 279 277 277 278 278 278 278 278 278 278 278 278 278 277 277 278 279 282 282 281
274 271 273 279 275 275 276 271 272 269 269 268 267 267 267 266 265 263 263 264 263 262 264 262 261 259 260 261 261 260 261 261 261 262 262 262 263 263 263 263 263 263 264 266 267 269 271 272 273 272 271 272 273 272 270 269 269 271 272 274 275 275 277 277 279 279 280 280 279 279 279 278 278 278 278 277 277 277 276 276 277 277 277 278 279 281 282
268 268 268 269 274 274 271 269 268 266 265 266 265 264 263 261 261 262 262 263 262 261 261 260 259 259 259 259 260 259 259 259 259 259 260 260 261 261 261 262 262 264 265 267 269 271 271 270 270 270 270 271 270 269 267 267 268 270 272 273 273 275 276 278 279 280 280 280 280 279 279 278 278 277 277 277 277 277 277 277 276 276 277 278 279 279 281
264 265 268 270 271 270 270 268 266 265 264 264 262 261 262 262 262 261 262 261 260 259 260 259 257 257 258 257 257 258 257 257 258 258 259 259 259 259 260 262 264 266 267 267 266 267 267 268 269 268 269 269 269 267 267 267 268 269 270 271 272 273 275 276 278 279 280 279 279 279 278 278 277 277 276 276 276 276 276 276 276 276 276 277 278 277 277
262 264 265 267 267 268 269 267 264 263 262 261 262 261 260 260 260 261 260 260 258 258 258 256 255 255 255 255 256 256 257 257 257 257 257 258 258 259 261 264 262 261 261 262 263 265 266 267 267 267 268 269 268 267 267 266 267 268 268 270 271 273 275 276 278 278 279 279 279 278 278 277 277 276 276 276 275 275 276 275 276 276 275 276 276 276 276
264 263 262 263 264 264 263 264 263 262 261 260 259 259 259 257 255 257 256 256 255 255 255 254 254 254 254 255 255 255 255 255 255 255 256 257 258 260 261 260 260 261 261 262 263 265 266 266 266 267 268 267 266 266 265 265 266 266 267 268 269 270 273 275 276 278 279 278 278 278 277 276 276 276 275 275 275 275 275 275 275 275 275 275 274 273 273
266 264 264 262 260 261 262 262 262 260 259 258 259 259 258 257 256 256 256 256 255 255 254 254 254 254 253 254 254 254 254 254 254 255 256 257 258 258 258 259 259 260 261 263 264 265 265 265 266 267 266 265 264 264 264 265 265 266 266 267 268 270 271 273 275 276 277 278 277 277 277 276 276 276 275 275 274 274 274 274 274 274 274 272 271 272 274
275 276 277 271 270 270 268 264 261 259 258 258 258 256 256 255 254 254 254 254 253 253 254 254 254 253 253 253 253 253 253 253 254 255 255 255 256 256 257 258 259 260 261 262 263 263 265 266 264 263 263 264 264 264 264 264 265 265 266 267 268 269 270 272 274 275 276 276 276 276 276 275 275 275 274 274 274 274 274 274 273 272 271 271 271 273 275
260 256 257 257 257 258 262 266 261 259 257 256 254 253 253 253 253 253 254 254 252 253 254 254 253 254 253 252 252 253 253 253 253 253 254 255 255 256 257 258 259 259 260 260 262 264 263 261 262 263 263 263 263 263 263 264 265 265 266 266 267 267 269 271 272 274 275 276 276 276 276 275 275 272 273 273 273 273 273 273 272 271 270 270 271 271 272
258 257 255 254 254 254 255 255 256 255 254 254 253 252 251 251 251 251 252 252 254 254 254 254 253 252 252 252 253 252 252 252 253 253 254 254 255 256 257 257 258 258 259 259 262 258 259 261 262 262 262 261 262 262 262 263 264 264 265 265 265 267 268 270 271 272 273 275 275 275 275 273 273 272 272 272 273 273 272 271 270 270 270 270 269 269 268
255 256 255 254 253 253 252 253 252 252 251 251 250 249 250 250 250 250 252 251 252 253 252 251 251 251 251 252 252 252 253 253 253 254 254 255 256 256 256 257 258 258 259 258 260 259 259 259 261 261 261 261 260 260 261 263 263 264 264 264 264 265 267 269 270 272 273 273 274 273 271 271 271 271 271 272 272 272 271 270 269 269 270 269 267 267 266
253 253 253 253 252 251 250 250 249 249 249 248 249 250 250 249 250 249 249 251 251 252 252 252 251 251 252 252 252 252 252 252 253 253 254 254 255 256 256 257 257 257 257 258 259 259 259 260 260 260 260 259 259 260 261 263 263 263 263 264 265 266 267 269 270 270 271 272 270 271 271 271 271 271 271 272 272 271 270 269 269 269 269 267 267 266 265
252 252 252 251 251 250 249 249 248 247 248 248 247 246 248 250 250 250 249 250 251 251 251 251 251 251 251 251 251 251 251 252 253 253 253 254 255 256 255 256 256 257 258 258 258 258 259 260 260 260 260 260 260 261 261 262 263 263 263 264 265 266 267 268 269 270 270 269 270 270 271 271 270 270 270 270 270 269 267 268 268 267 267 267 266 265 265
252 252 251 251 250 250 251 249 248 248 247 246 247 247 248 250 250 249 249 249 250 252 250 250 250 250 250 250 251 251 252 252 253 253 253 254 254 254 254 255 256 256 258 258 258 258 259 260 260 259 260 260 261 261 261 262 262 262 263 264 266 266 267 268 268 269 268 268 268 267 269 268 268 268 267 267 267 267 267 266 267 267 266 266 266 265 264
251 251 250 251 250 250 249 248 249 247 247 247 246 247 248 250 249 249 250 251 250 250 250 249 249 250 251 250 251 251 252 253 253 252 253 253 253 253 253 253 255 256 256 257 258 258 259 260 260 260 260 261 261 261 261 261 262 262 264 265 265 266 266 267 267 267 267 267 266 267 267 266 265 265 265 265 265 265 265 266 266 266 266 265 264 264 263
251 251 250 250 250 250 249 249 248 250 248 246 247 248 248 248 249 249 251 250 251 250 251 251 253 252 251 251 251 251 251 251 251 252 252 252 252 252 252 254 255 255 257 258 258 258 258 259 260 260 260 260 261 261 261 261 262 263 263 264 264 264 265 265 265 265 265 266 266 266 265 265 265 264 263 264 264 263 263 263 264 264 264 263 261 262 262
250 250 250 250 249 249 247 248 248 248 247 249 246 246 247 247 249 247 247 250 249 249 250 250 251 251 250 249 249 249 250 251 251 251 251 252 252 253 254 254 256 256 258 258 258 257 258 258 259 259 260 260 261 261 261 262 262 262 262 262 262 263 263 263 263 263 264 264 264 264 265 264 264 263 263 263 262 262 263 263 261 260 261 262 262 261 261
250 249 249 249 247 247 248 246 247 247 245 248 249 247 246 246 247 247 248 248 248 249 250 249 249 249 249 248 248 249 250 251 251 252 251 252 253 251 251 254 255 257 258 258 258 257 257 258 258 259 260 260 260 261 261 261 261 261 261 261 261 261 262 262 262 262 262 262 262 262 262 262 263 263 262 262 261 261 261 261 261 261 261 261 261 261 260
247 247 246 246 246 246 245 245 247 248 248 248 248 247 246 245 245 246 247 247 247 249 251 250 249 249 249 247 248 248 249 250 251 252 252 252 252 252 253 256 256 257 257 258 257 257 257 257 258 259 260 260 260 260 260 260 260 260 260 260 260 260 260 260 260 260 260 260 260 261 261 261 261 261 261 260 260 260 260 260 260 260 260 260 260 259 258
245 244 245 248 245 244 244 246 247 247 247 248 248 249 248 245 245 246 246 246 245 247 249 249 249 249 249 247 248 249 248 250 251 252 252 252 252 253 256 256 256 257 258 258 256 256 256 258 258 259 259 259 259 259 259 259 259 259 259 259 259 259 259 259 259 259 259 259 259 260 260 260 260 260 260 260 260 259 259 258 259 259 259 259 258 258 257
245 244 244 244 243 243 243 244 247 247 248 247 246 245 246 246 245 245 244 245 245 244 244 247 247 248 249 249 247 248 248 249 250 249 248 251 254 254 255 256 256 257 257 256 256 256 256 257 257 258 258 258 258 258 258 258 258 258 258 258 258 258 259 259 259 258 258 258 258 258 258 259 259 259 259 258 258 258 258 258 257 257 257 256 256 256 256
246 244 243 242 243 242 244 244 245 244 244 245 243 243 244 244 243 243 243 244 244 243 244 244 244 244 245 245 245 247 248 247 248 249 249 251 252 253 253 252 255 256 257 256 256 256 257 257 257 257 257 257 257 257 257 257 257 257 257 257 257 257 257 257 258 258 258 258 258 258 258 258 258 258 258 258 258 258 258 258 257 257 257 257 256 256 256
245 244 242 243 243 244 245 245 245 245 243 243 244 244 245 245 243 243 245 244 243 245 245 244 243 243 243 247 247 247 248 249 248 248 251 252 252 252 253 254 255 256 255 255 254 255 256 256 256 256 256 256 255 256 256 256 256 256 256 256 256 257 257 257 257 257 257 257 257 257 257 257 257 257 257 257 257 257 257 256 256 256 256 255 255 255 254
244 244 245 244 244 244 245 245 243 241 242 244 243 243 244 243 243 244 245 244 244 247 244 244 243 244 243 245 245 245 246 247 249 250 251 251 251 251 252 253 254 255 255 254 254 254 255 255 255 255 255 254 254 254 255 255 255 255 255 255 255 256 256 256 256 256 256 256 256 256 256 256 256 256 256 256 256 256 255 255 255 255 255 254 254 254 254
245 245 244 245 244 243 240 241 242 241 240 242 242 244 245 244 244 246 244 245 243 245 246 246 245 243 243 244 246 246 246 247 248 251 251 250 250 252 253 253 252 253 254 254 253 253 253 254 254 254 254 253 253 253 254 254 254 254 254 254 254 255 255 255 255 255 255 255 255 255 255 255 255 255 255 255 255 255 254 254 253 253 253 253 253 253 252
244 242 243 242 242 241 241 241 241 241 241 242 241 243 244 244 243 243 243 249 243 242 243 244 246 245 243 245 247 247 247 249 249 249 250 250 250 248 251 253 251 252 252 252 252 252 253 253 254 254 253 253 252 253 253 253 253 253 253 254 253 253 254 254 254 254 254 254 254 254 254 254 254 254 254 254 253 253 252 252 251 251 251 251 250 251 250
Wind_Speed
3 2 4 7 5 7 9 12 12 12 12 11 14 15 16 7 10 16 9 8 11 17 7 9 10 4 1 2 3 1 2 4 6 6 6 7 5 5 6 6 7 7 8 8 9 9 9 9 10 10 10 9 9 8 6 6 7 8 5 6 7 6 6 7 9 9 9 8 7 8 7 8 8 9 8 7 7 7 7 9 8 9 9 8 8 9 10
2 2 4 5 10 4 1 6 9 13 14 16 18 18 17 15 13 12 4 6 13 7 4 10 9 4 3 1 0 1 1 2 3 4 4 3 3 4 4 5 6 6 7 7 8 8 9 10 10 11 11 11 11 11 11 9 7 5 6 7 7 7 7 8 9 8 8 8 8 8 8 9 9 8 8 7 6 7 8 9 9 8 8 8 8 10 10
4 3 1 2 6 6 7 3 5 8 12 16 19 17 11 2 6 7 5 6 13 9 7 5 7 2 2 3 1 3 3 2 2 1 1 1 2 4 4 5 5 5 6 7 7 8 9 10 10 10 9 9 10 11 11 12 12 10 8 8 7 6 8 7 7 7 7 8 7 8 9 8 8 8 9 7 7 8 8 8 9 8 7 8 9 9 10
3 2 5 1 3 3 1 2 5 10 12 12 8 9 6 6 11 11 7 9 16 5 10 4 3 4 4 6 5 4 1 2 4 4 3 3 4 4 5 5 5 5 6 7 8 8 9 9 9 9 11 12 12 13 12 13 13 12 12 11 12 13 11 10 7 6 7 7 7 8 7 9 8 8 7 7 8 8 8 9 9 6 8 10 10 9 9
3 0 5 5 4 3 4 9 16 17 6 5 0 0 2 12 12 8 9 15 15 4 5 3 1 3 4 5 5 2 3 2 4 3 2 2 3 4 5 6 6 5 5 5 6 7 6 8 8 8 7 8 9 11 13 13 12 12 12 11 11 12 12 11 12 11 10 10 10 9 9 8 8 7 7 8 8 8 10 9 6 8 10 9 10 8 9
2 5 5 4 6 9 13 7 5 8 14 14 6 5 12 9 9 8 10 12 7 0 4 5 5 4 3 3 1 2 6 5 2 1 0 1 3 4 4 5 6 6 6 6 6 5 6 7 6 6 5 6 7 7 9 9 9 11 10 12 10 11 11 10 10 10 9 10 10 10 9 9 8 8 7 9 8 7 7 6 7 8 8 10 9 9 9
2 3 5 3 11 13 5 2 6 11 9 8 13 16 13 9 9 8 9 10 12 10 4 4 5 5 2 5 9 5 4 5 4 2 0 1 3 4 4 5 5 5 5 7 8 9 8 7 7 8 9 5 6 6 6 9 7 8 9 9 10 10 10 10 9 9 10 10 11 11 9 9 8 8 8 9 8 8 7 8 8 9 9 9 9 8 8
2 2 6 6 5 1 2 2 4 1 2 4 5 7 7 7 10 13 15 17 16 10 2 5 5 7 4 3 2 5 4 3 3 2 1 2 2 4 5 6 8 7 7 7 7 9 8 8 9 7 8 8 9 12 9 7 9 7 8 9 9 9 10 10 9 9 9 11 11 11 10 10 9 9 9 9 10 8 7 8 7 7 7 7 9 9 9
8 4 7 9 5 11 6 4 3 6 8 6 9 11 11 13 11 12 13 14 11 5 4 6 4 3 5 7 3 3 3 2 1 1 1 2 4 3 5 4 7 8 7 8 8 6 7 7 8 9 9 8 8 10 11 11 10 10 9 10 10 10 10 10 10 10 10 11 12 11 10 10 10 10 10 10 8 5 7 8 8 8 9 9 8 8 8
8 8 7 3 4 10 14 10 1 4 5 6 6 8 10 3 6 11 13 13 11 4 5 5 6 5 6 3 6 6 6 3 1 1 2 3 4 4 5 4 5 6 7 8 7 6 8 10 9 7 6 7 8 9 10 9 9 11 10 11 10 9 10 10 10 10 10 9 11 12 10 11 11 11 9 8 8 5 7 8 9 9 8 8 7 7 8
7 7 8 10 10 11 7 3 5 3 6 9 5 5 11 5 8 6 8 9 8 6 8 6 7 6 5 7 4 4 5 2 2 1 2 2 3 4 4 4 6 7 6 6 8 8 7 8 9 6 6 6 7 10 9 9 8 9 10 10 10 11 13 12 11 10 9 9 9 10 11 11 9 11 10 9 8 5 7 7 9 6 6 7 7 6 6
5 7 10 11 4 4 1 3 2 1 3 7 8 6 8 7 6 8 9 10 9 5 6 8 7 9 8 6 5 4 2 1 1 0 4 4 4 4 4 4 4 6 6 6 6 7 8 9 8 8 6 7 8 9 10 8 10 11 10 10 11 10 11 11 10 10 9 9 9 9 11 11 9 9 8 8 8 7 7 6 8 6 6 6 7 7 5
10 11 5 1 5 3 2 3 2 1 4 6 9 13 5 2 6 4 6 6 6 8 7 4 6 3 3 4 2 2 1 2 3 1 2 4 4 5 4 4 4 3 4 5 7 8 9 9 8 7 6 7 9 9 9 10 11 11 10 10 10 11 11 11 11 11 9 7 10 10 8 10 10 8 7 7 7 6 8 7 6 7 6 6 6 6 5
9 9 10 6 2 4 5 1 5 3 6 6 10 3 1 10 5 5 4 6 4 7 8 4 3 5 2 2 1 1 1 1 3 4 3 3 3 4 4 6 4 2 3 4 6 7 7 8 7 7 6 7 8 9 9 11 11 9 9 10 10 10 12 12 11 11 10 9 7 8 9 7 9 10 6 5 6 6 6 5 6 7 5 5 6 6 4
4 3 6 5 11 3 7 9 2 2 6 6 5 3 1 1 6 8 4 4 5 6 4 3 2 2 1 2 1 1 1 1 3 4 4 4 4 5 5 4 2 2 3 4 6 6 6 5 5 5 5 6 9 9 11 13 11 9 8 8 9 10 11 12 12 11 10 9 9 7 8 7 7 10 8 6 6 4 5 5 6 7 6 5 4 5 4
7 10 9 7 4 2 7 13 11 4 7 3 6 9 4 1 3 5 5 2 5 5 4 4 2 2 1 0 1 0 1 1 2 3 4 4 4 4 3 3 4 4 5 4 6 7 8 7 4 3 4 6 6 7 12 11 10 10 9 9 9 10 11 11 11 11 10 9 8 7 7 7 7 8 9 7 5 5 5 5 6 7 6 5 4 4 5
9 8 7 3 0 2 3 1 1 2 1 3 7 5 9 9 5 2 6 5 3 4 3 3 3 2 1 0 1 1 3 4 3 3 4 4 5 5 6 7 5 4 5 7 7 8 6 6 7 5 4 6 9 11 10 6 10 11 10 9 9 11 11 10 10 9 9 9 9 8 7 5 7 8 7 6 7 5 4 5 5 6 6 4 5 5 5
0 1 0 0 1 1 1 1 0 3 1 1 3 7 9 2 4 5 5 3 5 4 4 6 2 1 0 0 3 3 4 4 5 4 4 4 4 5 5 6 8 7 8 8 7 9 10 5 8 8 5 4 9 13 9 7 8 9 10 11 11 12 11 9 9 8 9 9 7 7 7 6 6 6 6 6 7 6 4 5 5 5 5 4 5 5 5
6 6 4 4 5 2 1 2 2 3 3 2 2 6 4 4 6 5 4 6 5 5 5 5 4 1 0 0 1 2 2 3 5 6 6 6 5 8 10 8 9 10 9 11 12 11 13 9 6 8 9 8 7 9 11 10 8 8 10 10 11 12 11 10 9 7 8 9 8 7 5 6 6 6 6 5 6 6 5 5 5 5 5 4 5 5 6
7 4 1 1 2 0 1 1 4 4 5 7 6 6 6 7 5 5 4 4 6 4 5 3 3 0 1 1 3 3 4 5 5 5 5 6 7 6 5 7 6 7 8 9 10 11 12 11 8 8 8 9 9 9 9 10 9 9 10 10 11 12 12 9 9 8 8 9 9 8 7 6 7 7 5 4 5 6 6 6 6 6 5 6 7 7 6
2 2 1 1 3 4 2 2 2 2 5 9 8 7 8 7 9 7 6 6 4 4 3 3 3 3 2 3 3 3 4 4 4 4 5 6 6 7 7 8 6 8 8 9 10 11 13 10 9 10 10 10 9 9 9 8 8 9 11 10 11 11 11 8 9 7 7 7 7 7 7 6 6 6 6 5 5 6 5 4 4 4 4 5 4 3 3
2 7 6 6 6 3 3 4 0 3 3 9 10 7 8 6 7 5 7 5 4 5 5 4 3 3 0 2 3 4 4 5 7 8 9 9 9 8 7 8 9 9 8 8 12 14 12 9 9 11 12 12 10 8 7 7 6 8 11 11 11 11 9 8 9 8 7 7 6 6 6 6 7 6 6 8 8 6 6 6 6 5 4 4 3 2 3
7 5 6 8 4 2 2 5 3 1 2 6 9 7 7 5 3 3 4 4 3 3 4 5 5 4 3 5 6 6 6 7 6 6 8 10 12 12 11 12 12 11 12 12 12 13 13 11 11 11 12 12 11 10 8 7 7 9 9 9 10 11 9 8 9 8 8 8 7 6 6 5 5 5 6 6 6 6 5 3 3 3 3 1 1 2 1
1 3 7 8 6 8 4 4 2 2 1 7 9 6 5 5 4 3 4 4 3 2 3 5 6 5 4 4 4 6 7 5 8 9 7 7 7 9 8 8 10 13 14 13 13 14 14 13 13 13 13 12 9 10 10 9 8 8 8 9 10 12 10 9 9 9 8 8 7 6 6 5 5 5 5 5 5 4 5 4 3 4 4 4 5 6 5
4 2 5 2 6 7 6 7 4 3 3 4 8 5 3 5 5 5 5 5 5 4 2 3 3 6 4 6 5 5 7 8 7 9 10 9 8 8 9 9 10 10 12 12 12 13 13 14 15 15 15 14 10 9 9 8 8 9 9 9 11 12 11 10 10 10 9 8 7 7 6 6 6 5 6 6 6 5 2 4 5 5 6 6 6 6 7
7 8 8 7 6 8 6 7 4 3 4 4 5 3 4 5 5 5 5 5 5 4 4 3 3 5 6 5 6 5 7 8 8 9 8 9 10 10 11 11 13 13 14 14 13 13 13 15 14 14 14 13 11 11 10 10 9 9 10 10 11 10 11 11 10 10 8 7 7 7 6 6 6 5 6 5 5 4 4 3 2 3 4 5 5 6 7
6 12 15 12 7 2 3 7 7 5 5 5 7 6 4 5 5 5 6 6 5 4 2 2 3 3 4 3 5 4 6 10 8 6 6 8 9 10 10 11 13 15 16 16 15 14 16 15 14 12 13 11 11 12 11 11 11 10 10 11 10 12 16 13 10 10 9 8 7 7 6 6 6 6 6 5 4 5 4 4 3 2 0 0 2 6 5
4 1 1 8 9 12 11 2 7 8 6 6 5 5 4 4 5 4 4 3 1 1 1 1 2 4 5 5 6 9 7 7 9 9 9 8 8 9 10 12 13 14 13 13 14 14 13 11 12 14 16 12 12 11 11 11 11 11 11 11 11 11 11 12 10 9 9 8 7 7 7 7 7 6 5 4 4 4 2 1 1 1 1 1 2 5 7
3 3 5 5 3 7 11 10 9 8 7 4 4 3 4 4 3 4 3 2 2 0 1 1 2 3 4 5 6 7 9 9 10 11 10 10 9 9 10 13 13 13 12 12 11 10 11 13 15 16 15 11 11 10 11 11 12 11 11 10 10 11 11 11 10 9 9 8 8 8 7 7 5 5 5 4 3 3 3 3 3 2 2 2 3 2 3
2 2 5 7 9 13 15 10 9 7 6 5 6 3 2 4 4 3 4 2 1 1 2 3 4 4 3 4 4 4 8 10 10 10 10 10 9 9 11 12 12 11 10 10 11 13 14 14 13 15 15 12 12 11 11 11 11 12 12 12 11 10 10 12 12 11 10 9 8 8 8 7 6 6 5 5 5 4 4 4 4 4 4 3 3 3 3
4 4 6 6 7 4 9 10 8 7 6 4 6 5 4 2 4 5 4 2 0 1 0 1 3 3 3 3 4 5 7 9 10 10 10 10 10 10 9 8 10 13 13 15 14 14 14 14 14 14 13 12 10 11 12 12 12 12 11 10 10 14 19 21 16 12 10 9 8 7 7 7 6 6 5 5 5 4 4 3 4 4 3 4 4 3 3
10 6 7 5 2 5 5 5 9 8 6 4 4 4 5 3 1 1 1 1 1 1 2 2 2 3 3 4 5 7 8 9 10 10 10 9 8 5 6 8 10 12 14 15 15 14 14 16 18 16 12 10 10 10 10 11 11 10 9 9 10 9 11 17 12 12 10 9 8 8 6 6 6 6 6 5 6 5 4 4 4 4 4 5 4 4 2
11 5 1 1 1 0 4 6 9 8 7 7 6 4 3 2 2 1 0 1 3 3 3 4 4 4 5 5 6 8 9 11 10 10 9 7 7 8 9 8 9 11 12 12 13 14 15 16 16 12 11 11 11 11 11 11 11 10 10 9 9 10 11 11 13 12 11 9 8 8 7 6 6 6 7 5 5 4 5 5 5 4 4 3 4 1 1
16 14 13 15 17 15 15 13 8 7 4 4 4 4 3 2 2 1 0 1 2 4 3 4 4 5 5 6 7 7 9 10 11 10 10 11 11 10 10 10 10 12 12 12 13 12 11 10 9 10 12 13 14 13 12 12 10 9 10 10 10 10 10 9 10 10 9 8 6 7 7 5 6 7 5 5 5 5 4 5 3 3 4 4 3 2 5
5 7 8 8 6 4 2 10 12 10 8 7 4 3 2 2 1 0 0 1 2 3 3 4 5 5 5 6 7 7 7 8 10 12 13 12 12 13 12 13 13 12 13 10 11 11 6 7 11 14 16 15 14 13 12 12 11 10 11 11 12 10 10 10 10 9 9 9 7 6 6 6 6 4 4 6 6 4 5 4 5 5 5 5 4 4 6
6 8 7 7 6 6 8 7 7 7 6 6 5 4 2 1 0 0 1 2 2 3 4 5 4 4 6 6 7 7 8 9 10 11 11 12 12 12 13 14 15 16 16 14 7 2 9 11 15 19 15 13 13 12 12 12 12 11 11 11 10 10 10 10 10 10 8 8 7 5 6 5 5 3 4 5 5 6 6 6 5 4 5 4 4 5 5
3 7 6 7 6 7 7 7 6 7 6 6 5 3 1 0 1 2 1 2 3 3 3 3 4 4 6 5 6 7 7 8 8 9 10 10 11 12 13 13 12 13 14 14 7 8 12 11 16 22 16 11 12 12 13 17 12 10 10 10 10 11 11 10 9 9 9 7 6 5 3 4 5 5 4 6 6 6 7 7 5 5 5 5 6 6 4
5 7 7 6 7 8 7 5 5 6 5 7 3 3 4 2 2 2 3 3 3 3 3 3 4 5 5 5 5 6 8 8 9 10 10 11 11 13 13 10 11 10 11 10 12 12 11 15 20 16 11 10 11 11 14 19 18 13 9 9 9 10 10 9 9 7 7 6 4 5 6 6 7 6 6 6 6 7 5 6 6 7 6 6 6 6 5
8 6 6 6 6 7 7 5 4 4 6 8 6 3 2 3 3 2 2 4 4 3 3 3 3 4 5 5 6 5 7 8 9 10 11 12 10 10 12 11 11 11 9 10 13 12 12 14 13 12 11 11 12 12 14 17 17 11 10 9 10 9 9 8 9 7 5 4 4 5 5 5 6 7 7 6 6 6 5 6 8 5 7 6 6 6 6
8 8 8 7 7 6 6 5 5 4 4 3 4 3 3 2 3 2 3 3 4 2 2 2 4 4 5 5 6 7 7 8 9 10 11 11 10 11 10 7 7 6 8 15 12 10 15 21 15 10 10 10 11 10 10 14 14 10 10 9 9 8 8 7 7 6 5 4 5 3 3 3 4 4 4 4 5 5 5 6 8 7 7 7 6 6 5
9 8 7 7 6 5 6 5 5 3 3 3 4 3 2 2 2 1 3 3 3 2 2 2 3 4 5 6 7 8 8 8 8 9 9 7 8 8 8 10 6 7 9 10 11 12 15 13 11 10 9 10 9 10 9 12 10 8 9 9 8 7 7 6 5 5 4 4 3 4 4 4 4 4 4 5 5 5 6 6 7 7 7 7 7 6 6
8 7 7 7 6 6 4 5 4 5 1 2 2 2 2 2 3 3 2 1 3 3 3 4 4 5 5 5 5 6 8 8 7 8 7 6 8 9 9 8 6 8 14 15 13 12 10 10 10 10 10 10 10 14 16 11 7 7 7 6 6 6 5 5 3 3 1 1 1 1 2 3 4 4 5 4 4 4 5 6 6 6 6 7 9 6 6
8 9 8 7 6 5 5 5 5 4 3 1 1 1 1 1 1 0 0 0 1 2 3 3 4 5 4 4 5 6 7 6 7 8 7 6 6 7 8 8 8 9 15 12 11 9 9 9 10 9 14 14 11 17 15 8 7 7 6 6 6 5 4 4 3 3 2 1 1 1 1 3 3 4 5 5 5 4 4 6 8 8 9 8 6 5 5
7 6 6 7 6 5 5 5 4 4 5 3 2 2 3 3 2 1 1 0 1 2 2 3 3 4 4 4 4 5 6 6 6 7 6 8 8 4 4 5 7 10 14 11 9 8 8 9 9 14 18 18 18 16 9 7 7 7 7 6 6 5 5 4 4 4 4 3 3 3 3 2 3 3 4 4 4 3 3 4 5 6 5 5 5 5 5
6 6 6 6 6 5 5 4 6 6 4 3 3 4 4 4 2 1 1 1 0 1 1 1 3 3 4 4 4 5 6 6 6 6 6 6 8 9 5 6 9 7 9 13 9 8 8 9 14 20 17 19 17 15 8 7 7 7 7 7 6 6 5 5 5 5 4 5 5 5 3 4 4 4 4 4 3 4 4 4 4 4 5 5 5 5 4
5 5 6 6 5 5 5 5 3 3 4 5 5 3 3 2 1 1 1 1 1 1 1 2 2 3 3 4 4 6 5 6 6 5 5 2 4 8 9 10 8 8 13 13 6 7 7 15 19 18 19 17 15 9 7 8 7 7 7 7 7 7 6 6 6 6 5 5 6 5 5 4 4 5 5 5 5 5 5 5 4 5 5 5 4 5 4
6 5 4 5 3 4 4 3 4 5 5 4 5 1 1 1 1 0 1 1 0 2 2 2 2 3 2 3 3 5 6 8 7 3 2 4 6 7 9 12 12 13 11 8 7 6 8 11 14 18 18 17 14 7 7 7 7 7 7 7 8 7 7 7 7 6 6 6 6 7 6 6 5 6 5 7 6 5 4 5 5 4 4 4 4 5 6
7 6 5 7 8 6 5 5 5 4 4 6 3 1 1 1 1 1 1 1 2 1 1 1 1 2 2 3 3 2 3 2 7 7 1 5 7 6 7 6 9 13 14 9 10 9 14 17 17 17 17 15 9 7 7 7 7 6 6 6 6 7 7 7 7 7 6 6 6 5 6 6 6 6 5 5 5 5 4 4 4 4 4 4 3 3 4
5 7 7 7 5 8 6 5 4 5 3 1 1 0 0 0 0 1 1 3 5 4 3 3 3 3 2 2 2 3 3 3 2 6 6 6 7 7 7 8 11 12 9 6 7 6 11 16 15 15 16 12 7 7 7 7 7 7 7 7 6 6 6 7 7 7 6 7 6 6 6 6 6 5 5 5 5 5 4 5 5 4 4 5 5 4 5
5 6 6 6 6 6 6 6 4 3 2 1 1 0 0 1 3 1 1 1 2 4 2 4 3 3 2 3 2 3 5 4 5 5 6 6 6 6 6 6 7 10 9 7 7 7 9 13 12 12 10 7 7 7 7 7 7 7 6 7 7 6 7 7 7 9 8 7 7 7 6 6 6 6 5 5 5 5 5 4 4 4 6 4 4 3 3
5 5 5 6 4 3 3 4 4 3 2 1 0 0 0 2 1 1 1 1 2 4 5 5 5 3 3 3 4 4 4 5 5 5 5 6 5 6 7 6 6 7 7 7 6 7 7 6 6 7 7 6 6 6 6 7 6 6 6 6 7 6 6 7 6 6 6 6 5 5 6 5 5 4 4 4 5 6 5 5 4 4 4 3 3 2 1
5 5 5 5 5 4 4 4 3 2 1 1 1 1 1 0 1 1 1 2 3 1 2 4 7 3 1 3 4 5 5 5 6 5 6 6 6 5 7 8 6 6 6 5 6 6 6 6 6 8 8 6 5 6 6 8 5 5 5 5 4 5 5 5 5 5 5 5 5 4 4 4 3 4 4 5 6 5 4 4 4 3 2 1 1 0 0
Wind_Direction
213 205 194 169 183 191 193 193 182 184 188 177 187 213 222 164 198 231 232 151 219 249 179 213 230 204 220 48 44 352 282 301 336 354 4 24 359 346 360 350 350 351 344 333 333 336 334 337 342 342 342 343 343 340 335 333 338 333 329 327 312 300 293 279 276 274 281 284 286 284 282 277 272 267 261 256 253 245 238 243 239 239 237 233 230 230 232
163 218 160 184 172 179 147 195 194 192 181 193 200 214 217 203 216 230 258 178 234 248 163 204 229 156 148 169 358 348 331 301 295 321 29 36 347 349 341 331 333 333 328 329 329 331 336 341 340 341 343 342 343 338 334 335 334 328 345 326 312 305 293 284 285 287 287 288 285 284 281 274 270 269 267 260 253 247 242 240 243 238 239 234 231 233 233
235 215 131 127 161 152 197 237 209 196 200 205 208 214 222 221 279 294 266 255 270 247 175 235 254 206 88 56 119 242 245 299 357 55 69 42 346 331 318 325 322 321 321 323 329 337 337 338 337 335 334 334 335 335 337 337 335 335 339 327 321 303 295 289 289 291 290 284 282 277 270 270 270 269 267 261 252 249 247 243 241 238 232 234 231 232 233
276 205 154 134 71 73 128 251 223 211 199 208 219 218 203 174 216 230 245 265 258 269 167 193 242 216 148 153 187 222 281 97 109 75 33 2 341 333 321 307 307 314 327 330 333 331 329 328 333 338 339 340 338 335 334 334 331 332 336 335 332 327 323 323 320 309 297 292 290 285 283 276 273 270 268 262 255 250 250 246 242 235 234 233 235 232 234
260 311 130 117 86 45 312 250 228 211 204 220 139 131 182 214 205 211 209 234 247 204 172 132 257 137 143 158 183 163 91 119 106 102 39 339 313 316 311 306 305 307 310 313 308 313 318 319 325 326 328 328 327 325 327 325 327 331 331 329 328 324 325 330 325 325 322 318 310 305 296 291 286 282 272 266 259 255 251 247 244 233 236 234 238 233 231
179 114 115 115 114 203 222 232 201 157 203 203 162 189 213 214 172 209 215 243 267 142 124 169 183 170 219 161 208 155 148 146 154 171 280 283 277 282 283 286 295 300 313 312 308 299 296 298 301 303 302 295 299 303 306 312 319 317 320 319 324 319 320 324 322 321 321 317 312 305 301 297 293 285 277 267 265 258 260 255 239 244 238 236 237 233 229
218 131 111 131 216 229 228 42 148 182 193 153 195 221 225 216 216 240 265 262 256 246 212 174 181 196 172 107 131 127 145 127 132 138 254 289 297 292 294 303 304 303 300 308 313 318 319 319 315 324 324 323 317 313 316 315 311 310 314 315 317 317 316 318 321 322 322 317 311 309 304 297 292 283 274 274 270 259 251 248 241 239 238 237 237 232 232
30 107 170 223 224 210 327 240 221 301 156 202 185 252 247 223 204 205 230 239 246 254 236 107 168 171 149 104 157 155 169 150 131 92 342 301 300 306 303 308 312 320 318 310 305 305 312 323 325 331 320 328 334 324 323 314 314 315 312 314 311 314 316 319 320 319 318 313 309 308 304 299 291 283 276 265 267 263 254 256 248 249 251 236 240 233 228
213 184 219 238 356 315 269 258 241 168 176 155 184 238 242 213 200 195 221 238 244 238 106 153 153 128 107 130 211 259 198 196 191 137 294 283 279 262 280 279 290 301 306 310 306 307 309 312 317 320 321 327 326 321 324 324 325 322 325 320 320 320 317 318 318 318 317 310 307 305 302 298 291 283 278 275 265 252 256 253 249 243 240 234 233 231 228
189 215 243 254 227 244 251 235 261 229 174 161 171 191 262 270 207 201 201 224 235 182 146 144 155 135 107 170 232 227 239 225 195 270 277 282 272 279 285 295 286 294 303 308 307 312 314 314 309 307 314 320 320 315 312 315 320 319 322 315 316 316 312 315 312 312 309 305 302 303 302 296 291 287 279 272 270 245 243 251 247 243 241 248 240 230 227
171 201 218 224 222 239 239 250 198 187 174 154 133 167 243 255 201 194 182 216 231 193 161 152 135 128 187 238 217 212 209 220 182 254 264 256 259 268 266 272 290 297 292 291 296 309 307 303 302 309 311 315 314 309 310 312 313 310 310 311 317 318 315 313 311 308 305 301 295 295 295 291 289 290 287 279 277 257 247 249 252 250 243 245 250 241 237
216 202 216 230 215 255 258 235 262 236 136 122 109 203 260 236 157 175 171 196 202 168 142 139 137 158 198 206 230 193 168 244 245 201 303 308 294 282 277 278 260 271 289 313 309 305 303 297 305 312 316 321 314 308 309 316 314 311 309 312 310 308 306 307 306 305 303 302 296 292 291 291 287 278 284 290 278 265 259 249 257 249 242 237 243 244 233
221 228 258 353 299 279 235 226 224 133 177 137 171 213 235 193 174 179 159 167 164 147 146 153 132 224 169 177 180 93 113 12 332 276 233 254 270 281 282 272 266 257 268 269 281 289 293 296 302 305 314 317 310 309 310 313 305 302 305 307 308 306 306 306 306 304 301 294 297 295 284 284 289 286 279 274 279 271 267 266 262 259 243 240 236 243 229
209 216 231 239 280 226 180 297 142 162 122 222 208 231 214 151 180 194 165 148 167 145 154 163 150 160 183 96 72 36 62 215 253 272 270 267 266 249 246 260 277 267 276 277 278 282 280 282 287 297 303 300 293 300 304 295 289 297 301 302 303 305 304 303 302 301 301 300 290 288 296 295 293 290 282 276 267 265 271 266 259 256 249 241 236 236 231
219 203 234 223 231 254 147 124 358 281 168 230 180 132 28 181 162 153 198 160 173 143 163 196 167 151 94 122 124 193 234 229 273 290 302 307 309 315 320 324 308 301 294 287 281 277 271 265 269 270 269 281 294 302 300 293 301 302 299 299 300 300 300 299 299 299 299 300 302 305 299 297 290 287 293 290 276 262 257 258 254 257 249 242 230 231 228
196 203 214 215 225 188 178 160 205 189 199 184 152 129 136 229 166 158 147 209 176 177 124 155 162 172 159 104 160 215 210 230 269 279 296 309 316 312 295 274 295 318 310 296 297 301 306 303 281 259 238 261 266 273 281 291 300 302 303 300 298 295 293 292 295 297 299 301 299 298 297 299 293 286 288 281 277 260 245 242 251 255 260 244 238 233 225
177 202 211 233 217 168 196 107 161 222 229 164 179 146 149 153 215 176 131 160 166 184 139 108 125 73 58 334 318 11 314 314 308 312 302 302 301 308 312 317 316 320 312 310 309 304 300 301 302 302 287 289 296 291 289 304 300 302 299 298 293 288 288 287 287 288 294 293 294 294 293 288 290 285 284 281 276 269 242 250 242 247 256 246 239 242 241
94 316 177 202 5 99 46 25 197 165 99 58 106 129 132 151 132 160 148 161 139 146 159 112 104 119 174 40 317 320 315 312 307 310 314 315 313 314 320 326 336 332 326 319 316 313 310 315 314 312 300 273 290 291 298 298 295 297 299 300 298 291 290 288 285 289 292 289 283 279 285 276 260 264 269 278 268 275 261 248 244 238 245 251 256 255 252
162 248 194 158 172 95 43 108 31 48 83 93 93 83 70 113 118 94 76 106 103 109 103 114 147 161 183 207 270 274 280 300 309 321 325 328 338 335 328 329 332 331 334 325 320 318 310 313 314 304 307 301 281 291 301 305 302 298 297 294 291 290 289 292 292 290 286 288 294 289 282 283 273 264 258 257 264 267 256 249 250 244 235 235 242 248 248
178 235 295 38 19 271 267 228 125 109 84 69 58 84 102 101 80 82 82 89 78 81 88 116 115 139 2 42 345 341 330 322 324 319 320 321 322 319 312 312 321 315 312 308 306 308 304 308 310 300 297 296 296 294 296 301 304 302 295 291 291 292 293 293 290 289 285 283 285 289 287 280 282 283 267 242 249 248 241 242 241 245 234 230 228 227 237
262 24 6 284 48 21 358 5 43 73 121 112 97 90 92 92 94 85 65 62 90 85 95 97 109 86 12 25 339 314 296 292 291 303 313 313 312 315 323 318 319 312 307 306 301 301 302 309 310 306 304 301 302 299 296 299 301 301 295 293 287 285 287 289 283 280 273 276 275 280 286 285 264 248 252 258 246 254 264 255 251 258 260 265 258 274 279
186 186 203 160 125 216 239 248 263 65 101 118 118 109 85 77 96 105 102 76 62 76 70 80 87 99 75 339 340 324 323 323 328 330 330 326 325 322 320 314 311 309 309 309 310 307 304 311 311 309 307 306 307 303 298 298 299 292 292 295 294 289 288 284 282 283 276 270 266 264 266 274 288 293 260 235 225 231 261 274 263 258 240 240 237 213 232
216 230 197 180 136 87 161 159 140 108 109 129 115 116 120 105 91 106 126 128 87 71 65 56 58 39 18 359 356 335 329 322 320 322 328 328 326 324 327 325 324 326 319 317 311 308 309 317 311 307 304 304 309 309 304 300 301 294 292 293 290 288 287 282 281 278 276 275 265 256 251 250 261 272 288 305 272 240 228 234 253 262 273 274 268 205 222
239 208 184 165 135 170 178 135 119 61 37 117 106 107 104 113 105 87 78 69 87 65 51 40 40 42 29 7 354 319 311 314 324 320 320 315 307 305 312 319 318 317 315 319 318 314 314 313 310 308 305 303 312 309 309 310 304 294 289 288 290 291 293 287 287 280 270 266 264 256 256 238 234 243 266 264 279 246 203 201 208 223 233 216 204 190 199
205 170 135 137 121 90 91 114 92 71 50 111 115 103 99 91 61 57 68 58 49 60 58 24 32 43 23 348 342 324 314 312 318 313 316 315 312 318 317 317 311 312 311 311 308 309 308 307 307 308 305 306 313 308 309 308 300 293 288 283 282 285 286 287 284 279 272 264 256 251 252 245 240 229 232 244 247 258 230 203 211 229 236 235 222 209 196
121 107 89 81 81 105 123 85 41 56 62 85 95 91 58 59 53 61 56 71 63 49 47 13 15 9 17 342 327 319 312 305 318 322 319 323 327 327 324 324 321 317 312 308 305 305 302 300 298 297 298 306 316 315 317 313 305 294 291 288 283 283 287 287 285 280 272 259 254 251 244 242 238 229 233 229 242 251 254 274 244 229 225 222 221 205 203
99 128 110 73 68 86 226 150 183 145 96 73 94 92 66 50 59 76 74 73 71 50 37 42 62 351 343 322 318 315 313 311 319 318 318 321 319 314 314 314 310 308 305 304 302 301 300 298 298 299 300 312 318 316 319 317 311 303 296 293 291 286 281 278 276 276 272 264 253 247 243 239 238 235 230 224 218 221 223 230 232 220 42 6 212 197 194
125 101 35 144 178 188 194 141 104 107 93 87 91 86 79 65 81 89 93 97 90 72 14 88 49 350 332 336 339 326 327 324 319 315 317 306 308 308 303 300 299 296 294 290 292 293 293 297 308 311 307 315 318 319 324 320 312 303 299 298 296 292 291 285 275 270 267 262 251 243 242 240 236 236 229 218 216 217 211 196 165 117 61 99 145 192 186
30 20 31 43 97 109 100 107 98 91 97 84 75 78 108 117 143 133 144 135 142 136 204 28 42 8 338 327 339 323 320 316 310 309 306 307 303 302 300 297 292 288 283 281 287 302 312 316 310 303 301 315 315 320 320 318 311 305 303 302 297 295 293 289 281 273 268 259 250 243 242 237 228 226 226 225 212 198 182 177 145 107 104 73 92 159 162
68 34 68 92 107 123 125 137 147 138 128 147 131 135 161 145 158 181 174 166 116 90 333 15 353 333 328 323 310 315 308 305 299 298 299 301 303 300 298 295 297 293 297 303 312 315 306 299 299 301 305 313 314 315 316 312 304 300 297 294 290 286 287 288 288 282 272 261 254 242 237 227 220 218 218 217 210 199 189 183 167 149 141 138 156 161 162
77 66 81 95 110 116 136 146 137 142 139 153 162 152 161 158 170 165 176 162 156 178 336 328 296 292 293 282 291 293 289 290 292 295 297 299 300 295 291 314 330 320 316 311 311 305 300 301 299 298 304 307 312 317 317 313 307 303 299 296 293 291 291 289 283 277 272 266 254 241 232 222 217 212 215 209 204 194 188 176 168 156 136 127 133 140 149
105 72 72 63 95 133 129 141 144 159 161 157 153 177 179 171 177 192 296 335 312 342 299 300 292 297 298 305 306 303 300 298 299 298 296 292 286 289 321 323 306 297 294 298 300 303 303 302 300 301 307 315 319 315 311 307 305 297 290 293 288 289 289 291 288 279 270 262 253 239 228 214 218 207 209 203 200 188 173 170 172 160 152 146 140 147 219
122 109 67 189 87 202 197 198 171 180 168 172 176 148 136 134 119 120 66 343 328 322 321 310 312 320 318 316 315 312 310 304 297 291 296 304 313 314 309 302 293 290 290 294 298 301 302 296 295 313 325 322 316 309 303 298 296 288 288 288 286 288 289 288 283 282 274 262 250 237 227 215 213 204 208 197 184 173 169 177 166 160 146 132 125 199 117
172 191 197 187 179 183 194 203 187 160 153 143 144 141 147 132 126 99 32 327 316 306 307 312 319 316 316 319 314 314 313 319 320 318 318 314 310 310 304 297 294 294 294 296 298 292 288 300 323 321 316 315 311 307 301 296 291 284 284 286 288 290 291 291 287 278 273 263 251 238 227 215 208 204 197 187 177 169 170 164 150 136 127 122 129 106 106
74 70 74 89 64 58 110 160 168 168 159 162 160 136 142 120 105 110 319 320 300 289 308 318 313 313 317 315 312 309 311 304 299 304 307 310 309 309 310 306 303 298 296 295 293 290 317 325 318 320 314 308 305 301 300 297 294 289 287 286 287 285 285 283 281 276 272 268 251 238 221 215 210 195 179 172 165 159 156 151 146 147 148 145 129 87 83
112 107 86 82 73 82 91 98 116 134 142 147 154 162 153 168 111 21 295 279 283 308 309 301 304 314 309 307 308 312 306 299 295 295 299 302 305 306 308 308 309 310 307 308 298 301 336 324 313 306 305 302 299 298 298 297 294 291 286 285 283 282 277 276 274 274 268 264 252 228 217 199 178 174 175 171 162 154 149 140 143 144 147 130 111 100 90
72 114 111 101 104 103 99 105 121 126 136 143 145 142 152 114 204 244 265 280 282 270 275 284 296 299 291 289 289 288 286 287 291 294 296 300 304 306 305 304 306 306 310 308 326 358 322 308 308 309 305 299 298 296 297 296 293 291 289 284 281 282 280 278 273 269 266 250 238 213 176 163 165 171 174 170 164 154 144 142 144 148 141 129 122 119 105
99 108 117 122 122 115 113 123 127 121 114 118 126 144 159 192 212 223 243 253 263 265 269 277 273 272 282 288 284 284 285 287 287 291 295 301 305 306 307 308 306 312 305 304 324 325 316 312 310 309 304 298 297 297 297 298 295 292 282 278 274 278 276 274 274 267 261 245 223 201 190 183 174 174 176 172 163 156 151 149 155 155 146 138 133 122 115
111 102 103 114 108 112 119 114 110 125 136 147 165 190 217 195 224 207 243 257 260 260 276 274 283 293 286 291 291 287 287 288 294 299 301 301 303 307 300 298 287 289 295 314 319 312 309 310 309 308 304 300 299 298 300 300 298 291 284 277 277 274 276 272 272 268 259 237 219 205 197 192 177 173 171 170 157 147 147 150 150 145 139 138 131 126 120
131 138 142 135 130 136 125 127 129 144 162 150 144 189 214 177 208 199 237 266 271 247 259 276 298 297 297 295 296 296 294 298 300 301 300 302 308 304 297 287 285 309 317 314 310 307 308 310 310 305 305 305 304 303 301 299 298 291 280 274 275 278 277 275 273 265 251 235 222 211 186 180 169 165 154 147 145 145 147 154 152 146 140 138 133 128 120
141 140 140 135 139 137 137 133 144 160 150 153 175 207 189 177 202 189 246 242 276 297 291 282 289 288 289 289 292 295 301 300 304 300 299 308 308 310 312 308 314 326 313 312 311 310 309 309 307 306 300 305 300 300 296 299 297 280 282 284 285 281 280 277 269 264 248 237 215 202 179 155 144 143 145 146 147 144 156 158 152 145 143 142 137 130 122
147 136 134 135 142 145 148 142 128 112 131 187 196 189 196 185 172 205 233 268 289 294 298 300 290 290 296 304 306 305 305 303 303 301 302 300 301 312 309 294 311 318 312 316 314 313 310 312 312 313 315 308 303 306 309 302 288 293 296 298 298 297 290 292 292 300 310 324 293 161 137 152 154 142 134 131 134 153 159 149 139 133 127 127 107 105 126
145 147 149 149 148 152 143 141 134 155 152 183 171 177 152 147 147 137 293 296 275 296 304 296 307 318 317 315 316 313 306 309 310 303 299 283 273 271 280 291 315 311 313 317 315 316 316 315 318 320 319 320 316 321 320 315 314 315 312 312 314 317 324 335 341 348 360 22 61 50 130 136 138 140 136 124 126 140 144 141 110 76 99 109 117 113 112
145 141 148 148 156 154 138 132 138 131 136 142 125 119 107 93 105 102 49 33 338 310 297 308 317 319 313 317 318 313 310 317 314 311 311 311 307 283 263 291 307 309 318 321 320 320 318 321 318 326 328 334 336 336 333 332 334 333 332 330 330 339 343 350 357 12 25 24 34 42 49 62 79 97 102 108 120 109 103 102 118 111 109 104 107 102 102
143 150 152 153 148 130 141 153 151 156 160 143 107 99 87 76 52 86 109 80 330 302 311 314 309 308 308 309 296 289 289 291 288 302 312 320 322 313 328 321 312 315 319 329 326 322 321 324 328 335 341 345 348 348 349 350 351 349 346 344 345 346 353 359 2 13 29 34 45 43 40 51 61 72 83 86 88 104 102 102 95 99 103 100 100 95 103
138 147 146 128 136 160 175 160 153 126 118 115 100 86 76 74 49 32 113 122 322 261 243 257 269 281 283 292 293 291 288 289 287 284 255 246 291 296 313 320 318 318 327 332 325 325 324 333 337 343 345 351 352 349 350 351 358 358 359 354 354 355 356 354 3 17 14 23 36 41 34 38 43 53 61 75 78 78 79 81 81 74 80 85 81 95 90
135 131 139 140 140 140 144 134 116 102 99 101 118 149 330 19 359 336 291 277 221 256 257 255 250 264 268 282 285 313 329 327 317 290 290 329 315 310 316 320 319 322 328 327 329 329 336 341 343 345 348 348 350 347 348 353 357 1 1 5 2 3 359 2 14 22 23 27 44 58 55 48 46 52 54 66 61 60 54 59 56 60 62 66 74 87 92
134 139 142 138 133 132 114 106 94 102 117 148 170 209 259 302 325 308 295 4 352 328 310 293 275 282 290 303 283 272 271 288 319 306 345 349 323 318 315 320 322 327 329 328 330 329 339 346 349 350 350 350 345 349 351 354 356 357 2 5 11 7 6 7 10 17 16 16 27 46 57 55 50 49 47 44 50 43 49 51 67 67 65 65 68 72 81
126 133 137 120 117 120 119 121 120 120 142 167 125 196 281 355 11 26 21 14 7 359 342 323 317 303 298 302 317 306 299 284 237 264 312 322 314 316 311 318 327 330 333 325 325 321 335 341 344 348 351 349 348 346 349 351 357 359 1 2 2 7 10 10 11 8 16 16 12 18 27 34 41 37 42 42 44 38 44 49 45 43 51 56 63 55 65
127 117 115 126 125 128 134 123 133 164 178 144 157 276 279 87 60 4 9 5 352 335 331 318 308 299 293 307 314 304 296 298 296 284 289 300 308 304 311 316 318 326 329 326 326 325 331 336 342 346 350 343 341 344 347 349 352 0 1 357 2 6 12 13 15 22 20 20 16 18 16 23 32 45 45 46 43 46 47 46 40 58 64 65 50 60 58
139 128 130 122 117 123 131 130 151 156 158 134 175 265 85 93 110 350 355 342 35 8 353 329 310 293 307 318 323 318 314 309 300 308 308 307 306 310 315 313 317 319 324 329 328 327 322 326 330 334 341 343 339 342 343 349 347 350 357 360 357 2 359 10 11 15 18 17 14 18 17 17 16 22 26 37 35 39 29 31 34 33 33 38 41 49 61
116 114 106 105 108 109 106 87 83 84 88 59 58 28 44 109 83 337 322 355 62 9 350 348 328 301 300 326 326 322 321 318 319 310 309 308 308 304 309 318 313 309 319 323 325 320 315 315 324 332 335 339 336 333 333 339 343 340 345 353 352 354 358 1 3 5 6 12 10 7 10 6 358 9 21 14 27 21 19 19 20 15 8 1 9 17 17